OPS 4682 DEB, 38374

Orbit data source: Space-Track

OPS 4682 DEB, 38374 is space debris in LEO originally from a launch on Sat, 03 Apr 1965 UTC launched from the Air Force Western Test Range (AFWTR). Debris objects in space refer to the collection of defunct objects orbiting the Earth. Examples of debris include non-operational satellites, rocket bodies, and fragments generated from explosions, collisions, or faulty payload assembly.

Loading next visibility...
Identifier
38374, 1965-027CB
Orbit
LEO
Country
Flag of USUS
Related business
Manufacturer
Unknown
Mission
Spacecraft
Bus & Motor
Unknown
Mass
Unknown
Launch date (UTC)
1965-04-03 (61 years ago)
Launch vehicle
Unknown
Launch site
Air Force Western Test Range (AFWTR)
Object type
Payload
Rocket body
Debris
Shape & HBR
Unknown shape, 0.1 m
Radar Cross Section
Small (<0.1 m²)

Expand to show TLE details & history
Last TLE update: 1 week ago

TLE from 1 week ago
0 OPS 4682 DEB
1 38374U 65027CB  25286.68724883  .00001218  00000-0  39506-2 0  9991
2 38374  90.2498   8.3770 0026703 151.5289 208.7299 13.01180320580574
Epoch: 2025-10-13T16:29Z
TLE epoch observation values (Epoch: 2025-10-13T16:29:38.298Z)
Latitude
-0.00005°
Longitude
98.48097°
Altitude
1,278.246 km
Speed
7.208 km/s
True Right ascension
00h 33m 30s
True Declination
0° 00' 00"
Sunlit
Object was in full shadow at epoch
Visualization orbit readout
Latitude
Unknown
Longitude
Unknown
Altitude
Unknown
Speed
Unknown
Apparent Right ascension
Unknown
Apparent Declination
Unknown
Sunlit
N/A
Visualization observer readout
Local Sidereal Time
12:32:43
Azimuth
Unknown
Elevation
Unknown
Doppler factor
Unknown
Orbital elements
Apogee altitude
1,274.972 km
Perigee altitude
1,234.209 km
Semi-major axis
7,632.728 km
Eccentricity
0.00267
Inclination
90.2498°
RAAN
8.377°
Arg. of periapsis
151.5289°
True anomaly
208.58324°
Mean anomaly
208.7299°
Eccentric anomaly
208.65653°
Mean motion
3.25479 °/min
Orbital period
110.61 mins
BSTAR
0.0039506
Loading maneuver chart data...
Computing Atmospheric mass density...
Loading historical data...
Loading historical data...
Loading historical data...
Loading historical data...
Loading historical data...
Loading historical data...
Loading historical data...

Documentation

Showing up to 5 results
|